TimeEDT,TemperatureF,Dew PointF,Humidity,Sea Level PressureIn,VisibilityMPH,Wind Direction,Wind SpeedMPH,Gust SpeedMPH,PrecipitationIn,Events,Conditions,WindDirDegrees,DateUTC
12:15 AM,28.4,17.6,64,30.02,8.0,WNW,3.5,-,N/A,,Clear,300,2012-03-14 04:15:00
12:35 AM,28.4,17.6,64,30.03,10.0,Calm,Calm,-,N/A,,Clear,0,2012-03-14 04:35:00
12:55 AM,28.4,17.6,64,30.02,10.0,Calm,Calm,-,N/A,,Clear,0,2012-03-14 04:55:00
1:15 AM,30.2,17.6,60,30.03,10.0,WNW,3.5,-,N/A,,Clear,290,2012-03-14 05:15:00
1:35 AM,28.4,17.6,64,30.03,10.0,Calm,Calm,-,N/A,,Clear,0,2012-03-14 05:35:00
1:55 AM,26.6,17.6,69,30.02,10.0,Calm,Calm,-,N/A,,Clear,0,2012-03-14 05:55:00
2:15 AM,26.6,17.6,69,30.02,10.0,Calm,Calm,-,N/A,,Clear,0,2012-03-14 06:15:00
2:35 AM,28.4,17.6,64,30.02,10.0,Calm,Calm,-,N/A,,Clear,0,2012-03-14 06:35:00
2:55 AM,26.6,17.6,69,30.02,10.0,Calm,Calm,-,N/A,,Clear,0,2012-03-14 06:55:00
3:15 AM,26.6,19.4,74,30.02,10.0,Calm,Calm,-,N/A,,Clear,0,2012-03-14 07:15:00
3:35 AM,26.6,17.6,69,30.02,10.0,Calm,Calm,-,N/A,,Clear,0,2012-03-14 07:35:00
3:55 AM,26.6,17.6,69,30.02,9.0,Calm,Calm,-,N/A,,Clear,0,2012-03-14 07:55:00
4:15 AM,26.6,17.6,69,30.02,9.0,Calm,Calm,-,N/A,,Clear,0,2012-03-14 08:15:00
4:35 AM,26.6,17.6,69,30.02,10.0,Calm,Calm,-,N/A,,Clear,0,2012-03-14 08:35:00
4:55 AM,26.6,17.6,69,30.02,9.0,Calm,Calm,-,N/A,,Clear,0,2012-03-14 08:55:00
5:15 AM,26.6,17.6,69,30.02,10.0,Calm,Calm,-,N/A,,Clear,0,2012-03-14 09:15:00
5:35 AM,26.6,17.6,69,30.01,9.0,Calm,Calm,-,N/A,,Clear,0,2012-03-14 09:35:00
5:55 AM,26.6,17.6,69,30.01,10.0,Calm,Calm,-,N/A,,Clear,0,2012-03-14 09:55:00
6:15 AM,26.6,17.6,69,30.00,10.0,Calm,Calm,-,N/A,,Clear,0,2012-03-14 10:15:00
6:35 AM,26.6,17.6,69,30.00,10.0,Calm,Calm,-,N/A,,Clear,0,2012-03-14 10:35:00
6:55 AM,26.6,17.6,69,29.99,10.0,Calm,Calm,-,N/A,,Clear,0,2012-03-14 10:55:00
7:15 AM,26.6,17.6,69,29.99,10.0,Calm,Calm,-,N/A,,Clear,0,2012-03-14 11:15:00
7:35 AM,26.6,17.6,69,29.99,10.0,Calm,Calm,-,N/A,,Clear,0,2012-03-14 11:35:00
8:15 AM,26.6,19.4,74,30.00,10.0,Calm,Calm,-,N/A,,Clear,0,2012-03-14 12:15:00
8:35 AM,26.6,19.4,74,29.99,9.0,Calm,Calm,-,N/A,,Clear,0,2012-03-14 12:35:00
8:55 AM,30.2,23.0,75,29.99,10.0,East,5.8,-,N/A,,Clear,90,2012-03-14 12:55:00
9:15 AM,35.6,28.4,75,29.99,10.0,ESE,5.8,-,N/A,,Clear,120,2012-03-14 13:15:00
9:35 AM,39.2,30.2,70,29.98,10.0,SE,8.1,-,N/A,,Clear,130,2012-03-14 13:35:00
9:55 AM,39.2,30.2,70,29.98,10.0,ESE,8.1,-,N/A,,Clear,120,2012-03-14 13:55:00
10:15 AM,42.8,30.2,61,29.97,10.0,ESE,6.9,-,N/A,,Clear,120,2012-03-14 14:15:00
10:35 AM,42.8,30.2,61,29.96,10.0,ESE,10.4,-,N/A,,Clear,120,2012-03-14 14:35:00
10:55 AM,44.6,30.2,57,29.96,10.0,SE,10.4,-,N/A,,Clear,130,2012-03-14 14:55:00
11:15 AM,46.4,28.4,50,29.95,10.0,SE,11.5,-,N/A,,Clear,130,2012-03-14 15:15:00
11:35 AM,46.4,30.2,53,29.95,10.0,SE,11.5,-,N/A,,Clear,130,2012-03-14 15:35:00
11:55 AM,48.2,28.4,46,29.94,10.0,SE,10.4,-,N/A,,Clear,130,2012-03-14 15:55:00
12:15 PM,48.2,30.2,50,29.94,10.0,SE,10.4,-,N/A,,Clear,130,2012-03-14 16:15:00
12:35 PM,48.2,30.2,50,29.93,9.0,ESE,9.2,-,N/A,,Clear,120,2012-03-14 16:35:00
12:55 PM,48.2,30.2,50,29.93,10.0,SE,11.5,-,N/A,,Clear,130,2012-03-14 16:55:00
1:15 PM,48.2,30.2,50,29.92,10.0,SE,9.2,-,N/A,,Clear,130,2012-03-14 17:15:00
1:35 PM,48.2,30.2,50,29.92,10.0,SE,11.5,-,N/A,,Clear,130,2012-03-14 17:35:00
1:55 PM,48.2,32.0,54,29.90,10.0,ESE,10.4,-,N/A,,Clear,120,2012-03-14 17:55:00
2:15 PM,48.2,32.0,54,29.89,10.0,SE,12.7,-,N/A,,Clear,130,2012-03-14 18:15:00
2:35 PM,48.2,33.8,58,29.88,10.0,ESE,11.5,18.4,N/A,,Clear,120,2012-03-14 18:35:00
2:55 PM,48.2,33.8,58,29.87,10.0,ESE,11.5,-,N/A,,Clear,120,2012-03-14 18:55:00
3:15 PM,48.2,33.8,58,29.86,10.0,SE,10.4,-,N/A,,Clear,130,2012-03-14 19:15:00
3:35 PM,46.4,33.8,62,29.85,10.0,SE,8.1,-,N/A,,Clear,130,2012-03-14 19:35:00
3:55 PM,46.4,33.8,62,29.84,10.0,ESE,8.1,-,N/A,,Clear,120,2012-03-14 19:55:00
4:15 PM,48.2,35.6,62,29.84,8.0,ESE,6.9,-,N/A,,Clear,110,2012-03-14 20:15:00
4:35 PM,48.2,35.6,62,29.84,10.0,SSE,5.8,-,N/A,,Clear,150,2012-03-14 20:35:00
4:55 PM,48.2,35.6,62,29.84,10.0,SSE,4.6,-,N/A,,Clear,160,2012-03-14 20:55:00
5:15 PM,48.2,37.4,66,29.84,10.0,SSE,11.5,-,N/A,,Clear,160,2012-03-14 21:15:00
5:35 PM,46.4,35.6,66,29.84,9.0,SSE,9.2,-,N/A,,Clear,160,2012-03-14 21:35:00
5:55 PM,46.4,35.6,66,29.83,8.0,SSE,5.8,-,N/A,,Clear,150,2012-03-14 21:55:00
6:15 PM,46.4,35.6,66,29.84,9.0,Calm,Calm,-,N/A,,Clear,0,2012-03-14 22:15:00
6:35 PM,46.4,35.6,66,29.83,10.0,East,5.8,-,N/A,,Clear,100,2012-03-14 22:35:00
6:55 PM,46.4,35.6,66,29.83,9.0,East,5.8,-,N/A,,Clear,100,2012-03-14 22:55:00
7:15 PM,42.8,35.6,76,29.84,7.0,East,6.9,-,N/A,,Clear,100,2012-03-14 23:15:00
7:35 PM,42.8,35.6,76,29.84,5.0,ESE,4.6,-,N/A,,Clear,120,2012-03-14 23:35:00
7:55 PM,42.8,35.6,76,29.84,5.0,Calm,Calm,-,N/A,,Clear,0,2012-03-14 23:55:00
8:15 PM,42.8,35.6,76,29.85,5.0,Calm,Calm,-,N/A,,Clear,0,2012-03-15 00:15:00
8:35 PM,39.2,33.8,81,29.85,7.0,Calm,Calm,-,N/A,,Clear,0,2012-03-15 00:35:00
8:55 PM,39.2,32.0,75,29.86,7.0,Calm,Calm,-,N/A,,Clear,0,2012-03-15 00:55:00
9:15 PM,37.4,32.0,81,29.85,6.0,Calm,Calm,-,N/A,,Clear,0,2012-03-15 01:15:00
9:35 PM,37.4,30.2,75,29.86,5.0,Calm,Calm,-,N/A,,Clear,0,2012-03-15 01:35:00
9:55 PM,37.4,30.2,75,29.86,5.0,ENE,3.5,-,N/A,,Clear,70,2012-03-15 01:55:00
10:15 PM,39.2,35.6,87,29.87,4.0,NE,3.5,-,N/A,,Clear,50,2012-03-15 02:15:00
10:35 PM,39.2,32.0,75,29.87,4.0,Calm,Calm,-,N/A,,Clear,0,2012-03-15 02:35:00
10:55 PM,39.2,33.8,81,29.87,2.5,Calm,Calm,-,N/A,,Clear,0,2012-03-15 02:55:00
11:15 PM,37.4,32.0,81,29.87,3.0,Calm,Calm,-,N/A,,Clear,0,2012-03-15 03:15:00
11:35 PM,37.4,32.0,81,29.88,3.0,Calm,Calm,-,N/A,,Clear,0,2012-03-15 03:35:00
11:55 PM,35.6,30.2,81,29.88,3.0,Calm,Calm,-,N/A,,Clear,0,2012-03-15 03:55:00